TimeCDT,TemperatureF,Dew PointF,Humidity,Sea Level PressureIn,VisibilityMPH,Wind Direction,Wind SpeedMPH,Gust SpeedMPH,PrecipitationIn,Events,Conditions,WindDirDegrees,DateUTC
12:53 AM,48.0,44.1,86,29.90,10.0,NNE,6.9,-,N/A,,Clear,30,2013-10-03 05:53:00
1:53 AM,46.0,43.0,89,29.90,10.0,North,6.9,-,N/A,,Clear,10,2013-10-03 06:53:00
2:53 AM,48.0,44.1,86,29.88,10.0,North,10.4,-,N/A,,Clear,360,2013-10-03 07:53:00
3:53 AM,48.0,44.1,86,29.86,10.0,NE,9.2,-,N/A,,Clear,40,2013-10-03 08:53:00
4:53 AM,48.9,45.0,86,29.88,10.0,North,9.2,-,N/A,,Overcast,10,2013-10-03 09:53:00
5:53 AM,50.0,46.0,86,29.92,10.0,NNW,13.8,-,N/A,,Overcast,330,2013-10-03 10:53:00
6:38 AM,48.2,46.4,93,29.87,5.0,NNE,16.1,-,0.05,Rain,Rain,30,2013-10-03 11:38:00
6:53 AM,48.9,46.0,90,29.86,9.0,NE,18.4,-,0.07,Rain,Light Rain,40,2013-10-03 11:53:00
7:48 AM,48.2,46.4,93,29.88,6.0,NNE,12.7,-,0.07,Rain-Thunderstorm,Light Rain,30,2013-10-03 12:48:00
7:53 AM,48.9,46.9,93,29.88,10.0,NNE,15.0,-,0.07,Rain-Thunderstorm,Light Rain,30,2013-10-03 12:53:00
8:03 AM,48.2,46.4,93,29.89,10.0,NNE,15.0,-,0.00,,Overcast,30,2013-10-03 13:03:00
8:53 AM,50.0,46.9,89,29.92,7.0,NNE,13.8,-,0.01,Rain,Light Rain,20,2013-10-03 13:53:00
9:53 AM,50.0,46.9,89,29.93,10.0,NNE,10.4,-,0.02,,Overcast,20,2013-10-03 14:53:00
10:53 AM,50.0,46.9,89,29.93,10.0,NE,16.1,21.9,0.01,,Overcast,40,2013-10-03 15:53:00
11:53 AM,50.0,46.9,89,29.91,10.0,NE,19.6,-,N/A,,Overcast,40,2013-10-03 16:53:00
12:53 PM,51.1,48.0,89,29.90,10.0,NNE,19.6,-,N/A,,Overcast,30,2013-10-03 17:53:00
1:32 PM,51.8,48.2,88,29.91,10.0,NNE,17.3,-,N/A,,Overcast,30,2013-10-03 18:32:00
1:53 PM,51.1,46.9,86,29.91,10.0,NNE,18.4,25.3,N/A,,Overcast,30,2013-10-03 18:53:00
2:11 PM,51.8,46.4,82,29.90,10.0,NNE,18.4,24.2,N/A,,Overcast,30,2013-10-03 19:11:00
2:53 PM,51.1,46.9,86,29.90,10.0,NE,19.6,27.6,N/A,,Overcast,40,2013-10-03 19:53:00
3:35 PM,51.8,46.4,82,29.91,10.0,NNE,19.6,26.5,N/A,,Overcast,30,2013-10-03 20:35:00
3:53 PM,50.0,48.0,93,29.92,5.0,NNE,19.6,-,N/A,,Overcast,30,2013-10-03 20:53:00
4:37 PM,50.0,48.2,94,29.91,4.0,NNE,19.6,-,0.00,Rain,Light Rain,30,2013-10-03 21:37:00
4:53 PM,50.0,48.0,93,29.93,4.0,NNE,20.7,27.6,0.00,Rain,Light Rain,30,2013-10-03 21:53:00
5:06 PM,50.0,48.2,94,29.91,4.0,NNE,19.6,26.5,0.00,Rain,Light Rain,30,2013-10-03 22:06:00
5:32 PM,50.0,46.4,87,29.92,5.0,NE,21.9,28.8,0.00,Rain,Light Rain,40,2013-10-03 22:32:00
5:53 PM,48.9,46.9,93,29.93,6.0,NE,21.9,-,0.00,,Overcast,40,2013-10-03 22:53:00
6:30 PM,48.2,46.4,93,29.92,4.0,NE,25.3,33.4,0.00,Rain,Light Rain,40,2013-10-03 23:30:00
6:42 PM,48.2,46.4,93,29.93,6.0,NE,23.0,29.9,0.00,,Overcast,40,2013-10-03 23:42:00
6:53 PM,48.0,46.0,93,29.95,10.0,NE,20.7,-,0.00,,Overcast,40,2013-10-03 23:53:00
7:04 PM,48.2,44.6,87,29.93,10.0,NE,23.0,31.1,N/A,,Overcast,40,2013-10-04 00:04:00
7:53 PM,48.9,43.0,80,29.97,10.0,NE,20.7,34.5,N/A,,Overcast,40,2013-10-04 00:53:00
8:53 PM,48.9,42.1,77,29.98,10.0,NE,21.9,31.1,0.00,,Overcast,40,2013-10-04 01:53:00
9:53 PM,48.0,42.1,80,29.98,8.0,NE,21.9,-,0.02,Rain,Rain,40,2013-10-04 02:53:00
11:53 PM,48.0,43.0,83,29.95,7.0,NE,27.6,39.1,0.01,Rain,Light Rain,40,2013-10-04 04:53:00